Weather History for Las Vegas, NM

Change the Weather History Date:

Sunday, October 7, 2012

  Actual Average Record
Temperature  
Mean Temperature 39 °F -  
Max Temperature 51 °F 69 °F 83 °F (1979)
Min Temperature 30 °F 39 °F 23 °F (1970)
Degree Days  
Heating Degree Days 26    
Moisture  
Dew Point 31 °F    
Average Humidity 85    
Maximum Humidity 100    
Minimum Humidity 52    
Precipitation  
Precipitation 0.00 in - - ()
Sea Level Pressure  
Sea Level Pressure 30.16 in    
Wind  
Wind Speed 12 mph (South)    
Max Wind Speed 23 mph    
Max Gust Speed 28 mph    
Visibility 8 miles    
Events      
Averages and records for this station are not official NWS values.
T = Trace of Precipitation, MM = Missing Value Source: NWS Daily Summary

Daily Weather History Graph

Daily Weather History Graph

Search for Another Location

Airport:

Trip Planner

Search our weather history database for the weather conditions in past years. The results will help you decide how hot, cold, wet, or windy it might be!

Date:

Astronomy

Oct. 07, 2012 Rise Set
Actual Time 7:00 AM MDT 6:35 PM MDT
Civil Twilight 6:35 AM MDT 7:00 PM MDT
Nautical Twilight 6:05 AM MDT 7:30 PM MDT
Astronomical Twilight 5:36 AM MDT 7:59 PM MDT
Moon 11:56 PM MDT (10/7) 1:31 PM MDT (10/7)
Length of Visible Light 12h 25m
Length of Day
11h 34m
Waning Gibbous, 55% of the Moon is Illuminated
Oct 7
Waning Gibbous
Oct 8
Last Quarter
Oct 15
New
Oct 21
First Quarter
Oct 29
Full

Hourly Weather History & Observations

Time (MDT) Temp. Windchill Dew Point Humidity Pressure Visibility Wind Dir Wind Speed Gust Speed Precip Events Conditions
12:31 AM 33.8 °F 27.0 °F 32.0 °F 93% 30.26 in 10.0 mi South 8.1 mph - N/A   Overcast
12:40 AM 33.8 °F 27.7 °F 32.0 °F 93% 30.25 in 10.0 mi SSE 6.9 mph - N/A   Overcast
12:51 AM 33.8 °F 26.4 °F 30.2 °F 87% 30.25 in 10.0 mi SSE 9.2 mph - N/A   Overcast
12:53 AM 33.1 °F 25.5 °F 32.0 °F 96% 30.16 in 10.0 mi SSE 9.2 mph - N/A   Overcast
1:06 AM 33.8 °F 25.3 °F 32.0 °F 93% 30.25 in 10.0 mi South 11.5 mph - N/A   Overcast
1:13 AM 33.8 °F 25.8 °F 30.2 °F 87% 30.24 in 10.0 mi South 10.4 mph - N/A   Overcast
1:53 AM 33.1 °F 26.1 °F 30.9 °F 92% 30.18 in 10.0 mi South 8.1 mph - N/A   Overcast
2:14 AM 32.0 °F 22.5 °F 30.2 °F 93% 30.24 in 10.0 mi South 12.7 mph - N/A   Overcast
2:53 AM 30.9 °F 20.7 °F 28.9 °F 92% 30.19 in 10.0 mi South 13.8 mph - N/A   Overcast
3:53 AM 30.9 °F 22.8 °F 28.9 °F 92% 30.18 in 8.0 mi South 9.2 mph - N/A   Overcast
4:53 AM 30.0 °F 20.0 °F 28.9 °F 96% 30.17 in 6.0 mi South 12.7 mph - N/A   Overcast
5:32 AM 30.2 °F 21.9 °F 30.2 °F 100% 30.21 in 2.5 mi South 9.2 mph - N/A   Overcast
5:53 AM 30.0 °F 21.1 °F 30.0 °F 100% 30.19 in 2.0 mi South 10.4 mph - N/A   Overcast
6:00 AM 30.2 °F 20.8 °F 30.2 °F 100% 30.20 in 1.8 mi South 11.5 mph - N/A   Overcast
6:09 AM 30.2 °F 19.3 °F 30.2 °F 100% 30.18 in 2.0 mi South 15.0 mph - N/A   Overcast
6:44 AM 30.2 °F 18.5 °F 30.2 °F 100% 30.18 in 3.0 mi South 17.3 mph - N/A   Overcast
6:51 AM 30.2 °F 18.5 °F 30.2 °F 100% 30.18 in 2.5 mi South 17.3 mph - N/A   Overcast
6:53 AM 30.0 °F 17.9 °F 30.0 °F 100% 30.16 in 2.5 mi South 18.4 mph - N/A   Overcast
7:28 AM 30.2 °F 17.4 °F 30.2 °F 100% 30.18 in 1.2 mi South 20.7 mph - N/A   Overcast
7:53 AM 30.0 °F 17.5 °F 30.0 °F 100% 30.15 in 1.0 mi South 19.6 mph 25.3 mph N/A   Overcast
8:16 AM 30.2 °F 16.8 °F 30.2 °F 100% 30.17 in 3.0 mi South 23.0 mph - N/A   Overcast
8:39 AM 30.2 °F 17.8 °F 30.2 °F 100% 30.17 in 7.0 mi SSW 19.6 mph 27.6 mph N/A   Overcast
8:53 AM 30.9 °F 20.2 °F 30.0 °F 96% 30.16 in 8.0 mi SSW 15.0 mph - N/A   Overcast
9:53 AM 32.0 °F 19.8 °F 30.0 °F 92% 30.15 in 10.0 mi South 20.7 mph - N/A   Overcast
10:53 AM 35.1 °F 24.5 °F 30.9 °F 85% 30.13 in 10.0 mi South 18.4 mph - N/A   Overcast
11:25 AM 35.6 °F 25.2 °F 30.2 °F 81% 30.17 in 10.0 mi South 18.4 mph 25.3 mph N/A   Overcast
11:53 AM 37.9 °F 29.6 °F 30.9 °F 76% 30.11 in 10.0 mi South 13.8 mph - N/A   Overcast
12:17 PM 39.2 °F 31.6 °F 32.0 °F 75% 30.17 in 10.0 mi South 12.7 mph 20.7 mph N/A   Overcast
12:53 PM 43.0 °F 37.2 °F 33.1 °F 68% 30.09 in 10.0 mi South 10.4 mph - N/A   Scattered Clouds
1:05 PM 42.8 °F 36.6 °F 33.8 °F 70% 30.16 in 10.0 mi South 11.5 mph - N/A   Mostly Cloudy
1:27 PM 44.6 °F 39.7 °F 33.8 °F 66% 30.15 in 10.0 mi South 9.2 mph - N/A   Scattered Clouds
1:53 PM 46.0 °F 42.5 °F 33.1 °F 61% 30.04 in 10.0 mi Variable 6.9 mph - N/A   Clear
2:53 PM 46.9 °F - 33.1 °F 59% 30.04 in 10.0 mi Variable 4.6 mph - N/A   Clear
3:53 PM 48.9 °F - 32.0 °F 52% 30.02 in 10.0 mi SSE 9.2 mph 16.1 mph N/A   Clear
4:53 PM 48.0 °F - 32.0 °F 54% 30.04 in 10.0 mi SSE 6.9 mph - N/A   Clear
5:53 PM 46.0 °F 40.2 °F 30.9 °F 56% 30.05 in 10.0 mi South 12.7 mph - N/A   Clear
6:53 PM 39.9 °F 32.9 °F 30.0 °F 68% 30.10 in 10.0 mi SSE 11.5 mph - N/A   Clear
7:53 PM 37.0 °F 28.9 °F 28.9 °F 73% 30.13 in 10.0 mi South 12.7 mph - N/A   Clear
8:53 PM 36.0 °F 27.5 °F 28.9 °F 76% 30.15 in 10.0 mi South 12.7 mph - N/A   Clear
9:53 PM 34.0 °F 24.2 °F 28.0 °F 79% 30.16 in 10.0 mi SSW 15.0 mph - N/A   Clear
10:53 PM 33.1 °F 21.9 °F 28.0 °F 82% 30.14 in 10.0 mi SSW 18.4 mph - N/A   Clear
11:53 PM 33.1 °F 21.9 °F 27.0 °F 78% 30.11 in 10.0 mi SSW 18.4 mph - N/A   Clear